COSMOS 2251 DEB, 37316

Orbit data source: Space-Track

COSMOS 2251 DEB, 37316 is space debris in LEO originally from a launch on Wed, 16 Jun 1993 UTC launched from the Plesetsk Missile And Space Complex (PKMTR). The debris from Iridium 33, an American commercial communications satellite, has been tracked extensively since its accidental collision with the defunct Russian satellite Cosmos 2251 in 2009. This event, occurring at high speed in low Earth orbit (LEO), generated thousands of pieces of space debris, significantly increasing the risk of further collisions. The Iridium 33 debris cloud has impacted space traffic management and orbital debris mitigation strategies, making it a subject of ongoing study in space situational awareness.

Loading next visibility...
Identifier
37316, 1993-036BKG
Orbit
LEO
Country
Flag of CISCIS
Related business
Manufacturer
Unknown
Mission
Spacecraft
Bus & Motor
Unknown
Mass
Unknown
Launch date (UTC)
1993-06-16 (33 years ago)
Launch vehicle
Unknown
Launch site
Plesetsk Missile And Space Complex (PKMTR)
Object type
Payload
Rocket body
Debris
Shape & HBR
Unknown shape, 0.1 m
Radar Cross Section
Small (<0.1 m²)

Expand to show TLE details & history
Last TLE update: 8 hours ago

TLE from 8 hours ago
0 COSMOS 2251 DEB
1 37316U 93036BKG 26122.18024128  .00036934  00000-0  26416-2 0  9996
2 37316  74.0143  95.6100 0026143 147.4760 212.8046 15.03999646882482
Epoch: 2026-05-02T04:19Z
TLE epoch observation values (Epoch: 2026-05-02T04:19:32.846Z)
Latitude
-0.00007°
Longitude
170.62128°
Altitude
572.52 km
Speed
7.566 km/s
True Right ascension
06h 22m 26s
True Declination
0° 00' 00"
Sunlit
Object was in daylight at epoch
Visualization orbit readout
Latitude
Unknown
Longitude
Unknown
Altitude
Unknown
Speed
Unknown
Apparent Right ascension
Unknown
Apparent Declination
Unknown
Sunlit
N/A
Visualization observer readout
Local Sidereal Time
19:49:04
Azimuth
Unknown
Elevation
Unknown
Doppler factor
Unknown
Orbital elements
Apogee altitude
570.247 km
Perigee altitude
534.012 km
Semi-major axis
6,930.266 km
Eccentricity
0.00261
Inclination
74.0143°
RAAN
95.61°
Arg. of periapsis
147.476°
True anomaly
212.64274°
Mean anomaly
212.8046°
Eccentric anomaly
212.72363°
Mean motion
3.762 °/min
Orbital period
95.69 mins
BSTAR
0.0026416
Loading maneuver chart data...
Computing Atmospheric mass density...
Loading historical data...
Loading historical data...
Loading historical data...
Loading historical data...
Loading historical data...
Loading historical data...
Loading historical data...

Documentation

Showing up to 5 results
|